TimeEDT,TemperatureF,Dew PointF,Humidity,Sea Level PressureIn,VisibilityMPH,Wind Direction,Wind SpeedMPH,Gust SpeedMPH,PrecipitationIn,Events,Conditions,WindDirDegrees,DateUTC
12:53 AM,63.0,57.0,81,30.04,10.0,Calm,Calm,-,0.00,,Overcast,0,2012-10-24 04:53:00
1:53 AM,62.6,57.2,82,30.06,10.0,Calm,Calm,-,N/A,,Overcast,0,2012-10-24 05:53:00
2:53 AM,62.1,57.9,86,30.07,10.0,Calm,Calm,-,N/A,,Overcast,0,2012-10-24 06:53:00
3:53 AM,61.0,55.9,83,30.07,10.0,Calm,Calm,-,N/A,,Mostly Cloudy,0,2012-10-24 07:53:00
4:53 AM,57.9,55.0,90,30.08,10.0,Calm,Calm,-,N/A,,Mostly Cloudy,0,2012-10-24 08:53:00
5:53 AM,59.0,55.9,90,30.09,10.0,Calm,Calm,-,N/A,,Overcast,0,2012-10-24 09:53:00
6:53 AM,59.0,55.0,87,30.11,10.0,Calm,Calm,-,N/A,,Mostly Cloudy,0,2012-10-24 10:53:00
7:53 AM,57.9,55.0,90,30.12,10.0,South,3.5,-,N/A,,Overcast,190,2012-10-24 11:53:00
8:53 AM,60.1,55.0,83,30.14,10.0,Calm,Calm,-,N/A,,Partly Cloudy,0,2012-10-24 12:53:00
9:53 AM,66.0,53.1,63,30.14,10.0,South,3.5,-,N/A,,Scattered Clouds,190,2012-10-24 13:53:00
10:53 AM,71.1,55.0,57,30.13,10.0,South,8.1,-,N/A,,Clear,170,2012-10-24 14:53:00
11:53 AM,72.0,55.9,57,30.11,10.0,South,9.2,-,N/A,,Scattered Clouds,170,2012-10-24 15:53:00
12:53 PM,73.9,55.9,53,30.10,10.0,South,6.9,-,N/A,,Scattered Clouds,170,2012-10-24 16:53:00
1:53 PM,77.0,57.9,52,30.07,10.0,SW,6.9,-,N/A,,Clear,230,2012-10-24 17:53:00
2:53 PM,78.1,55.9,46,30.05,10.0,SW,10.4,-,N/A,,Clear,220,2012-10-24 18:53:00
3:53 PM,79.0,55.0,44,30.04,10.0,SW,11.5,-,N/A,,Clear,220,2012-10-24 19:53:00
4:53 PM,78.8,53.6,42,30.04,10.0,South,9.2,-,N/A,,Clear,190,2012-10-24 20:53:00
5:53 PM,75.9,54.0,46,30.03,10.0,SSW,10.4,-,N/A,,Clear,200,2012-10-24 21:53:00
6:53 PM,71.1,53.1,53,30.04,10.0,South,5.8,-,N/A,,Clear,180,2012-10-24 22:53:00
7:53 PM,66.9,53.1,61,30.05,10.0,SW,3.5,-,N/A,,Clear,220,2012-10-24 23:53:00
8:53 PM,62.1,53.1,72,30.06,10.0,Calm,Calm,-,N/A,,Clear,0,2012-10-25 00:53:00
9:53 PM,60.1,53.1,78,30.06,10.0,Calm,Calm,-,N/A,,Clear,0,2012-10-25 01:53:00
10:53 PM,57.0,53.1,87,30.06,10.0,Calm,Calm,-,N/A,,Clear,0,2012-10-25 02:53:00
11:53 PM,53.1,51.1,93,30.06,10.0,Calm,Calm,-,N/A,,Clear,0,2012-10-25 03:53:00